TimeCDT,TemperatureF,Dew PointF,Humidity,Sea Level PressureIn,VisibilityMPH,Wind Direction,Wind SpeedMPH,Gust SpeedMPH,PrecipitationIn,Events,Conditions,WindDirDegrees,DateUTC
12:15 AM,67.5,62.8,85,30.11,0.2,Calm,Calm,-,N/A,,Haze,0,2012-10-05 05:15:00
12:35 AM,66.4,62.1,86,30.11,0.5,Calm,Calm,-,N/A,Fog,Fog,0,2012-10-05 05:35:00
12:55 AM,67.3,63.5,88,30.11,1.0,Calm,Calm,-,N/A,,Mist,0,2012-10-05 05:55:00
1:15 AM,66.9,63.1,88,30.11,0.2,Calm,Calm,-,N/A,Fog,Fog,0,2012-10-05 06:15:00
1:35 AM,66.2,62.2,87,30.11,0.2,Calm,Calm,-,N/A,Fog,Fog,0,2012-10-05 06:35:00
1:55 AM,66.2,63.0,89,30.10,0.8,Calm,Calm,-,N/A,,Mostly Cloudy,0,2012-10-05 06:55:00
2:15 AM,65.3,61.3,87,30.10,0.8,Calm,Calm,-,N/A,,Mist,0,2012-10-05 07:15:00
2:35 AM,64.9,61.0,87,30.10,0.5,Calm,Calm,-,N/A,Fog,Fog,0,2012-10-05 07:35:00
2:55 AM,64.8,60.8,87,30.09,0.2,Calm,Calm,-,N/A,Fog,Fog,0,2012-10-05 07:55:00
3:15 AM,64.4,60.3,86,30.09,1.0,Calm,Calm,-,N/A,,Haze,0,2012-10-05 08:15:00
3:35 AM,64.8,60.6,86,30.09,0.5,Calm,Calm,-,N/A,Fog,Fog,0,2012-10-05 08:35:00
3:55 AM,64.9,61.0,87,30.09,2.5,ESE,3.5,-,N/A,,Clear,120,2012-10-05 08:55:00
4:15 AM,65.3,61.7,88,30.08,2.5,Calm,Calm,-,N/A,,Clear,0,2012-10-05 09:15:00
4:35 AM,65.8,62.6,89,30.09,2.5,Calm,Calm,-,N/A,,Clear,0,2012-10-05 09:35:00
4:55 AM,65.7,62.8,90,30.09,5.0,Calm,Calm,-,N/A,,Clear,0,2012-10-05 09:55:00
5:15 AM,64.9,62.2,91,30.09,4.0,Calm,Calm,-,N/A,,Clear,0,2012-10-05 10:15:00
5:35 AM,64.8,61.7,90,30.09,0.2,Calm,Calm,-,N/A,Fog,Fog,0,2012-10-05 10:35:00
5:55 AM,64.4,61.7,91,30.10,0.5,Calm,Calm,-,N/A,Fog,Fog,0,2012-10-05 10:55:00
6:15 AM,64.4,61.7,91,30.10,5.0,Calm,Calm,-,N/A,,Clear,0,2012-10-05 11:15:00
6:35 AM,64.4,61.7,91,30.11,5.0,Calm,Calm,-,N/A,,Clear,0,2012-10-05 11:35:00
6:55 AM,63.7,61.0,91,30.10,0.2,Calm,Calm,-,N/A,Fog,Fog,0,2012-10-05 11:55:00
7:15 AM,62.6,59.9,91,30.10,0.2,Calm,Calm,-,N/A,Fog,Fog,0,2012-10-05 12:15:00
7:35 AM,63.5,61.2,92,30.11,0.2,Calm,Calm,-,N/A,Fog,Fog,0,2012-10-05 12:35:00
7:55 AM,64.9,62.4,92,30.11,3.0,Calm,Calm,-,N/A,,Clear,0,2012-10-05 12:55:00
8:15 AM,67.8,65.7,93,30.11,3.0,Calm,Calm,-,N/A,,Clear,0,2012-10-05 13:15:00
8:35 AM,71.4,68.0,89,30.12,7.0,Calm,Calm,-,N/A,,Clear,0,2012-10-05 13:35:00
8:55 AM,74.1,68.7,83,30.12,10.0,Calm,Calm,-,N/A,,Clear,0,2012-10-05 13:55:00
9:15 AM,76.3,70.9,83,30.12,10.0,SE,4.6,-,N/A,,Clear,140,2012-10-05 14:15:00
9:35 AM,79.0,73.6,83,30.13,10.0,SE,4.6,-,N/A,,Clear,140,2012-10-05 14:35:00
9:55 AM,81.0,72.9,76,30.12,10.0,South,4.6,-,N/A,,Clear,170,2012-10-05 14:55:00
10:15 AM,82.6,69.8,65,30.13,10.0,SSE,8.1,-,N/A,,Clear,150,2012-10-05 15:15:00
10:35 AM,84.2,68.4,59,30.13,10.0,South,6.9,-,N/A,,Scattered Clouds,180,2012-10-05 15:35:00
10:55 AM,84.0,67.1,57,30.13,10.0,South,5.8,-,N/A,,Scattered Clouds,180,2012-10-05 15:55:00
11:35 AM,86.5,66.0,50,30.12,10.0,SSE,8.1,-,N/A,,Scattered Clouds,150,2012-10-05 16:35:00
11:55 AM,87.8,64.9,46,30.11,10.0,South,5.8,-,N/A,,Clear,190,2012-10-05 16:55:00
12:15 PM,88.5,65.8,47,30.10,10.0,SE,5.8,-,N/A,,Clear,130,2012-10-05 17:15:00
12:35 PM,89.6,64.4,43,30.09,10.0,South,8.1,-,N/A,,Clear,190,2012-10-05 17:35:00
12:55 PM,90.1,64.2,42,30.09,10.0,SSE,8.1,-,N/A,,Scattered Clouds,160,2012-10-05 17:55:00
1:35 PM,90.9,62.1,38,30.07,10.0,SSE,5.8,-,N/A,,Scattered Clouds,160,2012-10-05 18:35:00
1:55 PM,90.3,62.8,40,30.06,10.0,SSW,3.5,-,N/A,,Scattered Clouds,200,2012-10-05 18:55:00
2:15 PM,90.0,64.4,43,30.05,10.0,South,4.6,-,N/A,,Mostly Cloudy,190,2012-10-05 19:15:00
2:35 PM,90.5,63.9,41,30.04,10.0,SE,8.1,-,N/A,,Mostly Cloudy,130,2012-10-05 19:35:00
2:55 PM,91.4,63.3,39,30.03,10.0,SE,5.8,-,N/A,,Scattered Clouds,140,2012-10-05 19:55:00
3:15 PM,90.9,63.3,40,30.02,10.0,South,4.6,-,N/A,,Scattered Clouds,170,2012-10-05 20:15:00
3:35 PM,90.1,63.0,40,30.01,10.0,South,4.6,-,N/A,,Scattered Clouds,170,2012-10-05 20:35:00
3:55 PM,88.9,64.0,43,30.01,10.0,SE,8.1,-,N/A,,Mostly Cloudy,130,2012-10-05 20:55:00
4:15 PM,90.5,64.6,42,30.01,10.0,SE,8.1,-,N/A,,Mostly Cloudy,130,2012-10-05 21:15:00
4:35 PM,89.1,64.2,44,30.00,10.0,SSE,6.9,-,N/A,,Scattered Clouds,150,2012-10-05 21:35:00
4:55 PM,87.3,64.4,46,29.99,10.0,SSE,6.9,-,N/A,,Scattered Clouds,160,2012-10-05 21:55:00
5:15 PM,87.3,64.9,47,29.99,10.0,SSE,6.9,-,N/A,,Scattered Clouds,150,2012-10-05 22:15:00
5:35 PM,88.0,65.5,47,29.99,10.0,SSE,6.9,-,N/A,,Clear,150,2012-10-05 22:35:00
5:55 PM,86.5,64.9,48,29.99,10.0,SE,4.6,-,N/A,,Scattered Clouds,140,2012-10-05 22:55:00
6:15 PM,85.1,65.3,51,29.99,10.0,SE,4.6,-,N/A,,Clear,140,2012-10-05 23:15:00
6:35 PM,82.6,66.2,58,29.99,10.0,SSE,5.8,-,N/A,,Clear,150,2012-10-05 23:35:00
6:55 PM,80.2,65.8,61,30.00,10.0,SSE,4.6,-,N/A,,Clear,150,2012-10-05 23:55:00
7:15 PM,77.9,65.3,65,30.00,10.0,SSE,3.5,-,N/A,,Clear,150,2012-10-06 00:15:00
7:35 PM,76.1,64.8,68,30.00,10.0,SE,3.5,-,N/A,,Clear,140,2012-10-06 00:35:00
7:55 PM,74.3,64.6,72,30.00,10.0,SSE,3.5,-,N/A,,Clear,150,2012-10-06 00:55:00
8:15 PM,73.2,64.4,74,30.00,10.0,SSE,3.5,-,N/A,,Clear,150,2012-10-06 01:15:00
8:35 PM,72.0,63.7,75,30.01,10.0,Calm,Calm,-,N/A,,Clear,0,2012-10-06 01:35:00
8:55 PM,71.1,63.5,77,30.01,10.0,Calm,Calm,-,N/A,,Clear,0,2012-10-06 01:55:00
9:15 PM,70.3,63.0,77,30.01,10.0,Calm,Calm,-,N/A,,Clear,0,2012-10-06 02:15:00
9:35 PM,69.8,62.8,78,30.01,10.0,Calm,Calm,-,N/A,,Clear,0,2012-10-06 02:35:00
9:55 PM,68.9,62.4,80,30.01,10.0,Calm,Calm,-,N/A,,Clear,0,2012-10-06 02:55:00
10:35 PM,66.9,60.4,80,30.02,2.5,Calm,Calm,-,N/A,,Haze,0,2012-10-06 03:35:00
10:55 PM,66.7,61.2,82,30.01,7.0,South,3.5,-,N/A,,Clear,170,2012-10-06 03:55:00
11:15 PM,66.7,61.7,84,30.01,7.0,South,3.5,-,N/A,,Clear,170,2012-10-06 04:15:00
11:35 PM,66.4,61.2,83,30.01,7.0,Calm,Calm,-,N/A,,Clear,0,2012-10-06 04:35:00
11:55 PM,65.7,60.8,84,30.01,4.0,Calm,Calm,-,N/A,,Haze,0,2012-10-06 04:55:00